www.pogodaiklimat.ru

Погода и климат >> Архив погоды >> Австралия >> Южная Австралия >> Юнта


ПОГОДА в Юнте

  • Прогноз погоды в Юнте
  • Монитор погоды в Юнте

АРХИВ ПОГОДЫ в Юнте

Время (UTC), дата Ветер
(напр.,м/с)
 
Видим.   Явления Облачность Т
(С)
Тd
(С)
f
(%)
Тe
(С)
Тes
(С)
Комфортность P
(гПа)
Po
(гПа)
Тmin
(С)
Tmax
(С)
R
(мм)
R24
(мм)
S
(см)
16 11.09 С 6 н/о н/о +12.3 -6.6 26 +10 +10 1024.8 989.1
17 11.09 С 6 н/о н/о +11.6 -6.3 28 +9 +9 1023.7 988.0
19 11.09 С 7 н/о н/о +11.4 -6.4 28 +9 +9 1022.6 987.0
20 11.09 С 8 н/о н/о +11.0 -6.8 28 +8 +8 1023.1 987.4
22 11.09 С 7 н/о н/о +13.4 -6.2 25 +11 +11 1024.3 988.6
23 11.09 С 6 н/о н/о +16.4 -6.0 21 +15 +15 1024.3 988.6
01 12.09 СЗ 6 н/о н/о +22.3 -7.4 13 +21 +21 комфорт 1024.7 989.0
02 12.09 СЗ 9 н/о н/о +25.6 -8.2 10 +23 +23 комфорт 1023.3 987.6 +11.0
04 12.09 З 10 н/о н/о +27.2 -8.4 9 +24 +24 комфорт 1022.0 986.4
05 12.09 З 8 н/о н/о +27.0 -8.5 9 +24 +24 комфорт 1021.4 985.8
07 12.09 З 7 н/о н/о +26.2 -5.4 12 +23 +23 комфорт 1021.6 986.0
08 12.09 ЮЗ 4 н/о н/о +25.1 -5.2 13 +23 +23 комфорт 1022.1 986.5
10 12.09 Ю 2 н/о н/о +16.5 -7.2 19 +17 +17 1023.8 988.1
11 12.09 Ю 2 н/о н/о +16.5 -4.7 23 +17 +17 1024.5 988.8
13 12.09 штиль 0 н/о н/о +12.9 -3.4 32 +13 +13 1024.8 989.1
14 12.09 ЮЗ 2 н/о н/о +10.8 -2.2 40 +10 +10 1025.0 989.3 +28.0
16 12.09 ЮЗ 2 н/о н/о +8.4 -1.4 50 +7 +7 1024.8 989.1
17 12.09 ЮЗ 1 н/о н/о +8.1 +1.0 61 +9 +9 1024.7 989.0
19 12.09 ЮЗ 1 н/о н/о +5.6 +0.2 68 +5 +5 1025.0 989.3
20 12.09 штиль 0 н/о н/о +5.6 +2.6 81 +5 +5 1025.5 989.8
22 12.09 штиль 0 н/о н/о +8.7 +3.5 70 +8 +8 1026.7 990.9
23 12.09 штиль 0 н/о н/о +13.2 +7.4 68 +13 +13 1026.8 991.0
01 13.09 С 3 н/о н/о +20.8 +4.8 35 +22 +22 комфорт 1025.8 990.1
02 13.09 З 3 н/о н/о +23.7 +2.5 25 +23 +23 комфорт 1025.2 989.5 +3.1
04 13.09 З 5 н/о н/о +25.5 -1.3 17 +24 +24 комфорт 1023.8 988.1
05 13.09 ЮЗ 4 н/о н/о +25.9 -0.2 18 +24 +24 комфорт 1023.3 987.6
07 13.09 Ю 7 н/о н/о +25.7 -3.8 14 +23 +23 комфорт 1023.8 988.1
08 13.09 Ю 5 н/о н/о +24.3 -3.1 16 +22 +22 комфорт 1024.1 988.4
10 13.09 ЮВ 3 н/о н/о +20.1 +1.0 28 +21 +21 комфорт 1026.0 990.2
11 13.09 Ю 4 н/о н/о +19.6 +2.0 31 +20 +20 1026.7 990.9
13 13.09 Ю 2 н/о н/о +13.5 -0.5 38 +13 +13 1027.4 991.6
14 13.09 Ю 2 н/о н/о +12.0 -0.2 43 +12 +12 1027.4 991.6 +27.1
16 13.09 Ю 2 н/о н/о +11.2 -0.3 45 +11 +11 1027.2 991.4
17 13.09 Ю 1 н/о н/о +11.2 +0.9 49 +12 +12 1026.9 991.1
19 13.09 штиль 0 н/о н/о +7.4 -1.3 54 +7 +7 1026.5 990.7
20 13.09 Ю 3 н/о н/о +8.5 +0.2 56 +7 +7 1026.9 991.1
22 13.09 штиль 0 н/о н/о +11.6 +3.6 58 +11 +11 1027.7 991.9
23 13.09 Ю 1 н/о н/о +13.9 +4.5 53 +15 +15 1028.0 992.2
01 14.09 ЮВ 1 н/о н/о +21.3 +4.8 34 +22 +22 комфорт 1026.6 990.8
02 14.09 С 2 н/о н/о +23.9 +4.8 29 +24 +24 комфорт 1026.0 990.2 +7.5
04 14.09 С 3 н/о н/о +25.8 +4.3 25 +25 +25 комфорт 1024.5 988.8
05 14.09 С 3 н/о н/о +26.4 +3.6 23 +25 +25 комфорт 1023.6 987.9
07 14.09 С 3 н/о н/о +26.4 +2.3 21 +25 +25 комфорт 1022.7 987.1
08 14.09 С 3 н/о н/о +25.3 +2.7 23 +24 +24 комфорт 1023.3 987.6
10 14.09 С 4 н/о н/о +19.3 +1.3 30 +20 +20 1023.9 988.2
11 14.09 С 5 н/о н/о +19.6 +2.5 32 +20 +20 1024.0 988.3
13 14.09 С 6 н/о н/о +18.5 +3.2 36 +18 +18 1023.3 987.6
14 14.09 0 н/о 1023.2 987.5 +27.3
16 14.09 0 н/о 1022.0 986.4
17 14.09 0 н/о 1021.0 985.4
19 14.09 0 н/о 1020.6 985.0
20 14.09 С 7 н/о н/о +15.9 +2.7 41 +14 +14 1020.7 985.1
22 14.09 С 6 н/о н/о +18.0 +2.7 36 +18 +18 1021.8 986.2
23 14.09 С 7 н/о +20.5 +2.8 31 +21 +21 комфорт 1021.9 986.3
01 15.09 С 8 н/о н/о +25.9 +1.9 21 +24 +24 комфорт 1020.9 985.3
02 15.09 С 9 н/о н/о +26.6 +1.1 19 +25 +25 комфорт 1020.1 984.6
04 15.09 С 7 н/о н/о +29.0 -0.2 15 +26 +26 жарко 1018.3 982.8
05 15.09 С 7 н/о н/о +29.9 -0.5 14 +27 +27 жарко 1017.1 981.7
07 15.09 З 7 н/о н/о +29.1 -2.1 13 +26 +26 жарко 1016.3 980.9
08 15.09 СЗ 6 н/о н/о +28.4 -2.6 13 +26 +26 жарко 1016.6 981.2
10 15.09 СЗ 7 н/о н/о +26.8 -2.9 14 +24 +24 комфорт 1017.5 982.0
11 15.09 С 3 н/о н/о +26.0 -3.5 14 +24 +24 комфорт 1016.8 981.4
13 15.09 С 5 н/о н/о +23.0 -3.3 17 +21 +21 комфорт 1016.2 980.8
14 15.09 С 6 н/о н/о +22.7 -5.2 15 +21 +21 комфорт 1016.2 980.8
16 15.09 С 6 н/о н/о +20.2 -5.6 17 +20 +20 1014.7 979.3
17 15.09 ЮЗ 4 н/о н/о +20.5 -3.2 20 +20 +20 1015.6 980.2
19 15.09 Ю 5 н/о н/о +14.9 +8.6 66 +13 +13 1016.9 981.5
20 15.09 Ю 5 н/о н/о +13.4 +9.5 77 +11 +11 1017.9 982.4
22 15.09 Ю 7 н/о н/о +12.0 +6.1 67 +9 +9 1019.3 983.8
23 15.09 Ю 7 н/о н/о +12.9 +4.3 56 +11 +11 1019.6 984.1
01 16.09 Ю 8 н/о н/о +14.5 +5.0 53 +12 +12 1020.7 985.1
02 16.09 ЮВ 7 н/о н/о +14.3 +4.3 51 +12 +12 1019.6 984.1
04 16.09 Ю 9 н/о н/о +16.5 +3.6 42 +15 +15 1019.6 984.1
05 16.09 Ю 9 н/о н/о +15.7 +3.5 44 +14 +14 1020.0 984.5
07 16.09 Ю 8 н/о н/о +9.8 +5.4 74 +6 +6 1021.9 986.3
08 16.09 Ю 6 н/о в посл. час дождь {туман} н/о +8.7 +4.3 74 +5 +5 1022.7 987.1
10 16.09 Ю 4 н/о н/о +8.1 +5.0 81 +5 +5 1024.0 988.3
11 16.09 Ю 3 н/о {туман} н/о +7.3 +5.0 85 +4 +4 1024.5 988.8 0.2
13 16.09 Ю 2 н/о н/о +4.9 +3.4 90 +3 +3 1024.7 989.0
14 16.09 Ю 4 н/о н/о +5.7 +4.2 90 +2 +2 1024.9 989.2 +24.8
16 16.09 Ю 6 н/о н/о +5.9 +1.6 74 +1 +1 1024.7 989.0
17 16.09 Ю 4 н/о н/о +5.4 +1.3 75 +2 +2 1024.4 988.7
19 16.09 Ю 3 н/о н/о +3.7 +0.6 80 0 0 1025.0 989.3
20 16.09 Ю 3 н/о н/о +3.0 +0.4 83 -1 -1 1025.3 989.6
22 16.09 ЮВ 4 н/о н/о +4.7 +0.8 76 +1 +1 1026.6 990.8
23 16.09 ЮВ 6 н/о н/о +6.8 -0.4 60 +3 +3 1026.8 991.0 0.2
01 17.09 ЮВ 6 н/о н/о +10.9 -5.5 31 +9 +9 1026.5 990.7
02 17.09 ЮВ 5 н/о н/о +12.1 -5.8 28 +10 +10 1025.8 990.1 +2.8
04 17.09 ЮВ 4 н/о н/о +14.1 -6.7 23 +13 +13 1024.9 989.2
05 17.09 В 3 н/о н/о +14.7 -7.4 21 +14 +14 1024.4 988.7
07 17.09 ЮВ 4 н/о н/о +15.7 -8.5 18 +15 +15 1024.2 988.5
08 17.09 ЮВ 3 н/о н/о +14.7 -8.0 20 +14 +14 1024.8 989.1
10 17.09 Ю 3 н/о н/о +9.9 -8.2 27 +9 +9 1025.6 989.9
11 17.09 ЮВ 3 н/о н/о +9.7 -8.4 27 +8 +8 1026.1 990.3
13 17.09 штиль 0 н/о н/о +2.5 -12.5 32 +3 +3 1026.7 990.9
14 17.09 штиль 0 н/о н/о +1.3 -13.2 33 +1 +1 1026.5 990.7 +16.3
16 17.09 штиль 0 н/о н/о -0.3 -13.5 36 -0 -0 1026.2 990.4
17 17.09 штиль 0 н/о н/о -1.1 -13.9 37 -1 -1 1025.5 989.8
19 17.09 штиль 0 н/о н/о -1.9 -12.0 46 -2 -2 1025.1 989.4
20 17.09 штиль 0 н/о н/о -2.4 -13.2 43 -3 -3 1025.1 989.4
22 17.09 ЮВ 1 н/о н/о +5.9 -7.0 39 +7 +7 1025.4 989.7
23 17.09 СВ 6 н/о н/о +12.9 -2.2 35 +11 +11 1025.7 990.0
01 18.09 С 5 н/о н/о +16.4 -2.6 27 +16 +16 1024.7 989.0
02 18.09 С 5 н/о н/о +17.8 -2.5 25 +17 +17 1024.0 988.3 -3.1
04 18.09 С 4 н/о н/о +19.1 -3.1 22 +19 +19 1022.6 987.0
05 18.09 С 4 н/о н/о +20.3 -4.0 19 +20 +20 1021.7 986.1
07 18.09 С 4 н/о н/о +20.2 -4.1 19 +20 +20 1020.8 985.2
08 18.09 С 4 н/о н/о +19.5 -4.0 20 +19 +19 1020.8 985.2
10 18.09 С 4 н/о н/о +16.3 -4.8 23 +16 +16 1020.7 985.1
11 18.09 С 5 н/о н/о +15.5 -3.9 26 +15 +15 1020.6 985.0
13 18.09 С 3 н/о н/о +12.2 -5.3 29 +11 +11 1020.6 985.0
14 18.09 С 5 н/о н/о +15.2 -3.2 28 +14 +14 1019.6 984.1 +21.2
16 18.09 С 4 н/о н/о +11.8 -3.9 33 +10 +10 1018.8 983.3
17 18.09 С 4 н/о н/о +12.8 -3.5 32 +11 +11 1017.9 982.4

 

Местоположение метеостанции Юнта (Южная Австралия, Австралия): широта -32.57 долгота 139.57 высота над уровнем моря 300 м.

В архиве по умолчанию представлена погода в Юнте за последнюю неделю. Архивные данные за месяц целиком и за предыдущие месяцы, начиная с января 2011 года, Вы можете получить, выбрав интересующий диапазон дат из раскрывающегося списка и нажав кнопку "Ввод!".


*Определитесь, кто Вы:
робот инопланетянин человек

Внимание! Время в таблицах - всемирное. Для получения местного времени необходимо прибавить поправку, которая равна 9.5 ч.

Смотрите также архив погоды в соседних городах и на ближайших метеорологических станциях:

Погода в Клэре (Южная Австралия, Австралия) (166 км)
Погода в Порт Огаста (Южная Австралия, Австралия) (174 км)
Погода в Сноутауне (Южная Австралия, Австралия) (184 км)
Погода в Брокен-Хилл аэропорту (Новый Южный Уэльс, Австралия) (189 км)
Погода в Уиолле (Южная Австралия, Австралия) (200 км)
Погода в Ренмарке (Южная Австралия, Австралия) (209 км)
Погода в Нереутпе (Южная Австралия, Австралия) (219 км)
Погода в Локстоне (Южная Австралия, Австралия) (228 км)
Погода в Розворти (Южная Австралия, Австралия) (232 км)
Погода в Кадине (Южная Австралия, Австралия) (236 км)

Пояснения к столбцам:

Ветер - указаны скорость ветра в м/с - средняя за 10 мин, порывы в срок и между сроками (в фигурных скобках) и направление, откуда дует ветер: С - северный, СВ - северо-восточный, В - восточный, ЮВ - юго-восточный, Ю - южный, ЮЗ - юго-западный, З - западный, СЗ - северо-западный.
Видимость - горизонтальная дальность видимости в метрах или километрах. При видимости от 1 до 10 км при отсутствии осадков обычно наблюдается дымка, при ухудшении видимости до 1 км и менее - туман. В сухую погоду видимость может ухудшаться дымом, пылью или мглою.
Явления - указаны атмосферные явления, наблюдавшиеся в срок или в последний час перед сроком; фигурными скобками обозначены явления, наблюдавшиеся между сроками (за 1-3 часа до срока); квадратными скобками обозначены град или гололедные отложения с указанием их диаметра в мм.
Облачность - указаны через наклонную черту общая и нижняя облачность в баллах и высота нижней границы облаков в метрах; квадратными скобками обозначены формы облаков: Ci - перистые, Cs - перисто-слоистые, Cc - перисто-кучевые, Ac - высококучевые, As - высокослоистые, Sc - слоисто-кучевые, Ns - слоисто-дождевые, Cu - кучевые, Cb - кучево-дождевые. Подробнее классификацию облаков см. в Атласе облаков (PDF).
T - Температура воздуха - температура, измеренная на высоте 2 м над землей.
Td - Температура точки росы - температура, при понижении до которой содержащийся в воздухе водяной пар достигнет насыщения.
f - Относительная влажность воздуха - влажноcть воздуха, измеренная на высоте 2 м над землей.
Te - Эффективная температура - температура, которую ощущает одетый по сезону человек в тени. Характеристика душности погоды. При расчете учитывается влияние влажности воздуха и скорости ветра на теплоощущения человека.
Tes - Эффективная температура на солнце - температура, которую ощущает человек, с поправкой на солнечный нагрев. Характеристика знойности погоды. Зависит от высоты солнца над горизонтом, облачности и скорости ветра. Ночью, в пасмурную погоду, а также при ветре 12 м/с и более поправка равна нулю.
P - Атмосферное давление - приведенное к уровню моря атмосферное давление.
Po - Атмосферное давление - измеренное на уровне метеостанции атмосферное давление.
Tmin - Минимальная температура - минимум температуры воздуха на высоте 2 м над землей.
Tmax - Максимальная температура - максимум температуры воздуха на высоте 2 м над землей.
R - Количество осадков - Количество выпавших осадков за период времени, мм. При наведении курсора мыши на число - период времени, за который выпало указанное количество осадков.
R24 - Количество осадков - Количество выпавших осадков за 24 часа, мм.
S - Снежный покров - Высота снежного покрова, см. При наведении курсора мыши на число - состояние снежного покрова и степень покрытия местности в баллах.